This is the latest recevied weather packets stored in our database for station/object KA1JKB. If no packets are shown the sender has not sent any weather packets the latest 10 day(s).
| Time | Temp. | Humidity | Pressure | Rain* | Wind** | Luminosity | Snow |
|---|---|---|---|---|---|---|---|
| 1787846360 | 23.89° C | 76% | 1012.9 hPa | 0 mm | - | 429 W/m² | - |
| 1787846056 | 23.89° C | 76% | 1012.7 hPa | 0 mm | - | 209 W/m² | - |
| 1787845752 | 24.44° C | 75% | 1012.8 hPa | 0 mm | - | 897 W/m² | - |
| 1787845447 | 24.44° C | 77% | 1012.7 hPa | 0 mm | - | 848 W/m² | - |
| 1787845143 | 24.44° C | 75% | 1012.7 hPa | 0 mm | - | 856 W/m² | - |
| 1787844838 | 24.44° C | 76% | 1012.7 hPa | 0 mm | - | 911 W/m² | - |
| 1787844537 | 23.89° C | 78% | 1012.7 hPa | 0 mm | - | 853 W/m² | - |
| 1787844233 | 23.89° C | 77% | 1012.6 hPa | 0 mm | - | 258 W/m² | - |
| 1787843931 | 23.89° C | 77% | 1012.7 hPa | 0 mm | - | 826 W/m² | - |
| 1787843626 | 23.89° C | 78% | 1012.6 hPa | 0 mm | - | 788 W/m² | - |
| 1787843323 | 23.89° C | 78% | 1012.5 hPa | 0 mm | - | 164 W/m² | - |
| 1787842718 | 23.33° C | 80% | 1012.1 hPa | 0 mm | - | 770 W/m² | - |
| 1787842413 | 23.33° C | 78% | 1012.4 hPa | 0 mm | - | 541 W/m² | - |
| 1787842113 | 22.78° C | 80% | 1012.4 hPa | 0 mm | - | 253 W/m² | - |
| 1787841808 | 22.78° C | 81% | 1012.4 hPa | 0 mm | - | 669 W/m² | - |
| 1787841504 | 23.33° C | 80% | 1012.4 hPa | 0 mm | - | 681 W/m² | - |
| 1787841203 | 22.78° C | 82% | 1012.4 hPa | 0 mm | - | 551 W/m² | - |
| 1787840899 | 22.22° C | 83% | 1012.1 hPa | 0 mm | - | 608 W/m² | - |
| 1787840599 | 22.22° C | 85% | 1012.1 hPa | 0 mm | - | 559 W/m² | - |
| 1787840294 | 22.22° C | 84% | 1012.3 hPa | 0 mm | - | 568 W/m² | - |
| 1787839995 | 22.22° C | 86% | 1012.2 hPa | 0 mm | - | 540 W/m² | - |
| 1787839694 | 22.22° C | 87% | 1012.1 hPa | 0 mm | - | 88 W/m² | - |
| 1787839389 | 21.67° C | 87% | 1012 hPa | 0 mm | - | 391 W/m² | - |
| 1787839089 | 21.67° C | 88% | 1012 hPa | 0 mm | - | 488 W/m² | - |
| 1787838788 | 21.11° C | 90% | 1011.9 hPa | 0 mm | - | 514 W/m² | - |
* Rain latest hour (hover to see other rain measurements)
** Current wind speed in m/s (hover to see current wind gust speed)